• In Deutschland
  • Länderverzeichnis
  • Für 7 Tage
  • Wassertemperatur
  • Satellitenkarten
  • Wetterkarte
  • Widgets
  • user-avatar
    Anmelden

    Stündliche Wetter Nachiczewan

    Heute, 27 Juni, Dienstag

    Zeit Temperatur Niederschläge Wind Luftdruck Luftfeuchtigkeit
    00:00 +24°C° 0 mm 2 m/S 689 mmHg 59%
    01:00 +24°C° 0 mm 2 m/S 689 mmHg 61%
    02:00 +23°C° 0 mm 1 m/S 689 mmHg 62%
    03:00 +23°C° 0 mm 1 m/S 689 mmHg 64%
    04:00 +23°C° 0 mm 1 m/S 689 mmHg 61%
    05:00 +24°C° 0 mm 1 m/S 689 mmHg 58%
    06:00 +25°C° 0 mm 1 m/S 689 mmHg 55%
    07:00 +27°C° 0 mm 1 m/S 689 mmHg 48%
    08:00 +29°C° 0 mm 1 m/S 689 mmHg 41%
    09:00 +31°C° 0 mm 1 m/S 689 mmHg 34%
    10:00 +32°C° 0 mm 1 m/S 689 mmHg 31%
    11:00 +35°C° 0 mm 2 m/S 689 mmHg 27%
    12:00 +36°C° 0 mm 2 m/S 688 mmHg 23%
    13:00 +37°C° 0 mm 2 m/S 688 mmHg 22%
    14:00 +38°C° 0 mm 2 m/S 688 mmHg 20%
    15:00 +39°C° 0 mm 2 m/S 687 mmHg 18%
    16:00 +39°C° 0 mm 2 m/S 687 mmHg 19%
    17:00 +38°C° 0 mm 2 m/S 687 mmHg 20%
    18:00 +38°C° 0 mm 3 m/S 687 mmHg 21%
    19:00 +35°C° 0 mm 2 m/S 686 mmHg 27%
    20:00 +32°C° 0 mm 2 m/S 686 mmHg 33%
    21:00 +29°C° 0 mm 2 m/S 686 mmHg 39%
    22:00 +29°C° 0 mm 2 m/S 686 mmHg 41%
    23:00 +28°C° 0 mm 2 m/S 686 mmHg 43%

    Morgen, 28 Juni, Mittwoch

    Zeit Temperatur Niederschläge Wind Luftdruck Luftfeuchtigkeit
    00:00 +27°C° 0 mm 2 m/S 686 mmHg 46%
    01:00 +27°C° 0 mm 2 m/S 686 mmHg 47%
    02:00 +26°C° 0 mm 1 m/S 686 mmHg 47%
    03:00 +26°C° 0 mm 1 m/S 686 mmHg 48%
    04:00 +26°C° 0 mm 1 m/S 686 mmHg 47%
    05:00 +27°C° 0 mm 1 m/S 686 mmHg 45%
    06:00 +28°C° 0 mm 1 m/S 686 mmHg 43%
    07:00 +30°C° 0 mm 1 m/S 687 mmHg 38%
    08:00 +32°C° 0 mm 1 m/S 687 mmHg 33%
    09:00 +34°C° 0 mm 1 m/S 687 mmHg 28%
    10:00 +35°C° 0 mm 1 m/S 687 mmHg 25%
    11:00 +37°C° 0 mm 1 m/S 686 mmHg 22%
    12:00 +39°C° 0 mm 1 m/S 686 mmHg 20%
    13:00 +40°C° 0 mm 2 m/S 686 mmHg 19%
    14:00 +40°C° 0 mm 2 m/S 685 mmHg 17%
    15:00 +41°C° 0 mm 2 m/S 685 mmHg 16%
    16:00 +40°C° 0 mm 3 m/S 685 mmHg 18%
    17:00 +39°C° 0 mm 3 m/S 684 mmHg 19%
    18:00 +40°C° 0 mm 4 m/S 684 mmHg 21%
    19:00 +36°C° 0 mm 3 m/S 684 mmHg 27%
    20:00 +34°C° 0 mm 3 m/S 685 mmHg 33%
    21:00 +31°C° 0 mm 2 m/S 685 mmHg 39%
    22:00 +30°C° 0 mm 2 m/S 685 mmHg 42%
    23:00 +29°C° 0 mm 2 m/S 685 mmHg 46%

    übermorgen, 29 Juni, Donnerstag

    Zeit Temperatur Niederschläge Wind Luftdruck Luftfeuchtigkeit
    00:00 +28°C° 0 mm 2 m/S 685 mmHg 49%
    01:00 +27°C° 0 mm 2 m/S 685 mmHg 51%
    02:00 +27°C° 0 mm 2 m/S 685 mmHg 53%
    03:00 +26°C° 0 mm 2 m/S 685 mmHg 55%
    04:00 +26°C° 0 mm 2 m/S 685 mmHg 54%
    05:00 +27°C° 0 mm 1 m/S 685 mmHg 53%
    06:00 +27°C° 0 mm 1 m/S 686 mmHg 51%
    07:00 +29°C° 0 mm 1 m/S 686 mmHg 45%
    08:00 +31°C° 0 mm 1 m/S 686 mmHg 39%
    09:00 +33°C° 0 mm 1 m/S 686 mmHg 32%
    10:00 +35°C° 0 mm 2 m/S 686 mmHg 29%
    11:00 +36°C° 0 mm 2 m/S 686 mmHg 26%
    12:00 +38°C° 0 mm 2 m/S 686 mmHg 22%
    13:00 +38°C° 0 mm 2 m/S 685 mmHg 21%
    14:00 +39°C° 0 mm 3 m/S 685 mmHg 20%
    15:00 +40°C° 0 mm 3 m/S 684 mmHg 18%
    16:00 +40°C° 0 mm 4 m/S 684 mmHg 20%
    17:00 +38°C° 0 mm 4 m/S 684 mmHg 22%
    18:00 +37°C° 0 mm 4 m/S 684 mmHg 23%
    19:00 +35°C° 0 mm 4 m/S 684 mmHg 28%
    20:00 +31°C° 0 mm 3 m/S 684 mmHg 33%
    21:00 +29°C° 0 mm 2 m/S 685 mmHg 38%
    22:00 +28°C° 0,1 mm 2 m/S 685 mmHg 39%
    23:00 +27°C° 0,1 mm 2 m/S 685 mmHg 41%

    30 Juni, Freitag

    Zeit Temperatur Niederschläge Wind Luftdruck Luftfeuchtigkeit
    00:00 +26°C° 0,1 mm 2 m/S 685 mmHg 43%
    01:00 +26°C° 0,1 mm 2 m/S 685 mmHg 44%
    02:00 +25°C° 0,1 mm 2 m/S 685 mmHg 45%
    03:00 +24°C° 0,1 mm 2 m/S 685 mmHg 46%
    04:00 +25°C° 0 mm 2 m/S 685 mmHg 44%
    05:00 +25°C° 0 mm 2 m/S 685 mmHg 42%
    06:00 +26°C° 0 mm 2 m/S 685 mmHg 41%
    07:00 +27°C° 0 mm 2 m/S 686 mmHg 36%
    08:00 +29°C° 0 mm 2 m/S 686 mmHg 31%
    09:00 +31°C° 0 mm 2 m/S 686 mmHg 26%
    10:00 +32°C° 0 mm 2 m/S 686 mmHg 24%
    11:00 +35°C° 0 mm 2 m/S 686 mmHg 21%
    12:00 +36°C° 0 mm 3 m/S 685 mmHg 18%
    13:00 +37°C° 0 mm 3 m/S 685 mmHg 17%
    14:00 +37°C° 0 mm 4 m/S 685 mmHg 16%
    15:00 +38°C° 0 mm 4 m/S 685 mmHg 15%
    16:00 +37°C° 0 mm 5 m/S 685 mmHg 16%
    17:00 +36°C° 0 mm 5 m/S 685 mmHg 17%
    18:00 +35°C° 0 mm 5 m/S 685 mmHg 18%
    19:00 +33°C° 0 mm 4 m/S 685 mmHg 21%
    20:00 +30°C° 0 mm 4 m/S 686 mmHg 24%
    21:00 +28°C° 0 mm 3 m/S 686 mmHg 27%
    22:00 +27°C° 0 mm 3 m/S 686 mmHg 29%
    23:00 +27°C° 0 mm 3 m/S 686 mmHg 31%

    1 Juli, Samstag

    Zeit Temperatur Niederschläge Wind Luftdruck Luftfeuchtigkeit
    00:00 +26°C° 0 mm 2 m/S 687 mmHg 33%
    01:00 +25°C° 0 mm 2 m/S 687 mmHg 34%
    02:00 +25°C° 0 mm 2 m/S 687 mmHg 35%
    03:00 +24°C° 0 mm 2 m/S 687 mmHg 36%
    04:00 +24°C° 0 mm 2 m/S 687 mmHg 36%
    05:00 +24°C° 0 mm 2 m/S 687 mmHg 35%
    06:00 +24°C° 0 mm 2 m/S 688 mmHg 35%
    07:00 +26°C° 0 mm 2 m/S 688 mmHg 31%
    08:00 +28°C° 0 mm 2 m/S 688 mmHg 26%
    09:00 +30°C° 0 mm 2 m/S 689 mmHg 22%
    10:00 +31°C° 0 mm 3 m/S 688 mmHg 20%
    11:00 +34°C° 0 mm 3 m/S 688 mmHg 18%
    12:00 +35°C° 0 mm 4 m/S 688 mmHg 16%
    13:00 +36°C° 0 mm 4 m/S 688 mmHg 16%
    14:00 +36°C° 0 mm 5 m/S 688 mmHg 16%
    15:00 +37°C° 0 mm 5 m/S 687 mmHg 16%
    16:00 +36°C° 0 mm 5 m/S 687 mmHg 18%
    17:00 +35°C° 0 mm 5 m/S 687 mmHg 20%
    18:00 +34°C° 0 mm 6 m/S 687 mmHg 22%
    19:00 +32°C° 0 mm 4 m/S 688 mmHg 26%
    20:00 +29°C° 0 mm 3 m/S 688 mmHg 29%
    21:00 +27°C° 0 mm 2 m/S 688 mmHg 33%
    22:00 +26°C° 0 mm 2 m/S 688 mmHg 34%
    23:00 +25°C° 0 mm 2 m/S 688 mmHg 36%

    2 Juli, Sonntag

    Zeit Temperatur Niederschläge Wind Luftdruck Luftfeuchtigkeit
    00:00 +25°C° 0 mm 2 m/S 688 mmHg 37%
    01:00 +24°C° 0 mm 2 m/S 688 mmHg 38%
    02:00 +23°C° 0 mm 2 m/S 688 mmHg 38%
    03:00 +23°C° 0 mm 2 m/S 688 mmHg 38%
    04:00 +23°C° 0 mm 2 m/S 688 mmHg 37%
    05:00 +24°C° 0 mm 2 m/S 688 mmHg 36%
    06:00 +24°C° 0 mm 1 m/S 688 mmHg 34%
    07:00 +26°C° 0 mm 1 m/S 688 mmHg 30%
    08:00 +29°C° 0 mm 1 m/S 688 mmHg 25%
    09:00 +31°C° 0 mm 1 m/S 689 mmHg 21%
    10:00 +32°C° 0 mm 2 m/S 688 mmHg 19%
    11:00 +35°C° 0 mm 2 m/S 688 mmHg 17%
    12:00 +36°C° 0 mm 3 m/S 688 mmHg 15%
    13:00 +37°C° 0 mm 3 m/S 687 mmHg 15%
    14:00 +38°C° 0 mm 4 m/S 687 mmHg 15%
    15:00 +40°C° 0 mm 4 m/S 687 mmHg 14%
    16:00 +38°C° 0 mm 4 m/S 687 mmHg 16%
    17:00 +37°C° 0 mm 4 m/S 687 mmHg 18%
    18:00 +36°C° 0 mm 5 m/S 687 mmHg 20%
    19:00 +34°C° 0,1 mm 4 m/S 687 mmHg 25%
    20:00 +30°C° 0,1 mm 3 m/S 687 mmHg 30%
    21:00 +28°C° 0,1 mm 2 m/S 687 mmHg 35%
    22:00 +27°C° 0 mm 2 m/S 687 mmHg 37%
    23:00 +27°C° 0 mm 2 m/S 687 mmHg 38%
    Mehr zeigen